This is the latest recevied weather packets stored in our database for station/object N6SPP. If no packets are shown the sender has not sent any weather packets the latest 10 day(s).
| Time | Temp. | Humidity | Pressure | Rain* | Wind** | Luminosity | Snow |
|---|---|---|---|---|---|---|---|
| 1777595506 | 26.67° C | 46% | 1013.5 hPa | 0 mm | - | 61 W/m² | - |
| 1777595202 | 26.67° C | 45% | 1013.5 hPa | 0 mm | - | 269 W/m² | - |
| 1777594898 | 27.22° C | 44% | 1013.4 hPa | 0 mm | - | 292 W/m² | - |
| 1777594595 | 27.22° C | 44% | 1013.6 hPa | 0 mm | - | 304 W/m² | - |
| 1777594291 | 27.22° C | 42% | 1013.5 hPa | 0 mm | - | 318 W/m² | - |
| 1777593987 | 27.22° C | 42% | 1013.7 hPa | 0 mm | - | 332 W/m² | - |
| 1777593683 | 27.22° C | 40% | 1013.8 hPa | 0 mm | - | 347 W/m² | - |
| 1777593380 | 27.78° C | 38% | 1013.6 hPa | 0 mm | - | 304 W/m² | - |
| 1777593079 | 27.22° C | 38% | 1013.9 hPa | 0 mm | - | 376 W/m² | - |
| 1777592778 | 27.78° C | 37% | 1013.8 hPa | 0 mm | - | 391 W/m² | - |
| 1777592474 | 27.22° C | 37% | 1013.8 hPa | 0 mm | - | 406 W/m² | - |
| 1777592169 | 27.78° C | 37% | 1013.9 hPa | 0 mm | - | 420 W/m² | - |
| 1777591866 | 27.78° C | 37% | 1013.8 hPa | 0 mm | - | 434 W/m² | - |
| 1777591562 | 27.78° C | 37% | 1013.8 hPa | 0 mm | - | 448 W/m² | - |
| 1777591259 | 27.78° C | 38% | 1014 hPa | 0 mm | - | 461 W/m² | - |
| 1777590954 | 27.78° C | 38% | 1014.1 hPa | 0 mm | - | 474 W/m² | - |
| 1777590650 | 27.78° C | 40% | 1014 hPa | 0 mm | - | 487 W/m² | - |
| 1777590346 | 27.78° C | 39% | 1014 hPa | 0 mm | - | 503 W/m² | - |
| 1777590044 | 27.78° C | 38% | 1014 hPa | 0 mm | - | 516 W/m² | - |
| 1777589740 | 27.78° C | 41% | 1014 hPa | 0 mm | - | 528 W/m² | - |
| 1777589438 | 27.78° C | 40% | 1014.2 hPa | 0 mm | - | 540 W/m² | - |
| 1777589134 | 27.78° C | 40% | 1014.1 hPa | 0 mm | - | 553 W/m² | - |
| 1777588830 | 27.78° C | 40% | 1014.3 hPa | 0 mm | - | 567 W/m² | - |
| 1777588527 | 27.78° C | 42% | 1014.3 hPa | 0 mm | - | 572 W/m² | - |
| 1777588222 | 27.78° C | 45% | 1014.1 hPa | 0 mm | - | 583 W/m² | - |
* Rain latest hour (hover to see other rain measurements)
** Current wind speed in m/s (hover to see current wind gust speed)